Dewpoint
-7 -6 -4 -2 -5 -7 -9 -11 -10 -9 -7 -8 -8 -9 -9 -8 -9 -8 -7 -8 -7 -6 -6 -7 -7 -7 -7 -6 -5 -5 -5 -4 -4 -2 -1 1 1 2 1 2 3 5 7 8 9 10 10 10 10 10 10 10 11 11 12 12 13 13 13 13 13 13 13 13 11 11 11 10 9 7 7 8 8 8 8 9 8 8 14 12 12 11 11 11 11
-8 -7 -4 -6 -6 -8 -10 -11 -10 -9 -8 -8 -9 -10 -9 -9 -9 -8 -9 -8 -8 -8 -7 -7 -8 -7 -7 -7 -7 -6 -5 -5 -5 -4 -3 -1 -0 1 1 2 2 2 2 3 6 10 10 10 10 10 10 11 11 11 12 12 13 13 13 14 13 13 14 13 12 11 11 10 9 8 8 8 7 9 8 8 9 10 8 9 8 9 9 11 12
-8 -6 -4 -6 -7 -9 -10 -10 -10 -9 -9 -9 -10 -10 -9 -10 -9 -10 -10 -10 -9 -9 -8 -8 -7 -8 -8 -7 -7 -7 -6 -6 -5 -4 -3 -1 0 2 3 3 4 4 4 4 4 7 9 10 10 10 10 10 11 11 12 12 13 13 13 14 14 14 13 13 12 11 11 10 9 8 7 8 8 9 9 9 10 9 9 8 8 9 9 9 11
-8 -6 -5 -6 -8 -9 -10 -10 -10 -10 -11 -10 -10 -10 -10 -10 -9 -9 -9 -9 -9 -10 -9 -9 -9 -9 -9 -9 -8 -8 -7 -6 -6 -5 -3 -3 -3 -3 -2 -0 3 6 7 8 9 9 9 9 10 10 10 10 10 10 12 12 13 13 13 14 14 13 13 13 13 12 11 10 9 8 8 7 8 9 9 10 10 9 8 8 9 7 9 10 10
-8 -6 -6 -7 -9 -10 -11 -11 -11 -11 -11 -11 -11 -10 -10 -10 -10 -10 -10 -10 -10 -10 -10 -9 -10 -9 -10 -9 -9 -9 -8 -7 -6 -5 -4 -3 -3 -2 -1 -0 0 3 4 4 7 9 12 12 11 11 11 10 10 10 11 12 13 13 13 13 13 13 13 13 13 13 12 11 10 9 9 8 8 10 11 10 8 7 5 6 7 9 10 10 10
-8 -5 -6 -8 -9 -10 -11 -11 -11 -12 -11 -12 -11 -11 -11 -11 -11 -11 -11 -11 -11 -10 -11 -10 -10 -10 -10 -10 -9 -8 -7 -6 -6 -5 -5 -4 -3 -2 0 1 2 3 3 4 6 7 10 13 13 12 11 10 10 11 12 12 12 13 13 13 13 13 13 13 13 12 12 11 10 9 9 8 8 9 10 10 9 8 7 6 5 6 7 8 10
-8 -5 -7 -8 -10 -11 -11 -11 -12 -12 -12 -11 -11 -11 -11 -11 -11 -11 -11 -11 -11 -11 -11 -11 -11 -11 -10 -10 -9 -8 -7 -6 -6 -6 -5 -4 -2 -0 0 1 2 3 4 5 7 8 9 10 10 12 12 12 12 12 13 13 13 13 13 13 13 13 13 13 13 12 12 11 10 10 9 9 8 7 9 9 9 9 8 8 7 7 8 8 8
-7 -5 -7 -9 -10 -11 -12 -12 -12 -12 -11 -11 -11 -11 -11 -11 -11 -11 -11 -12 -11 -11 -11 -11 -11 -10 -10 -10 -9 -8 -8 -6 -6 -5 -3 -3 -2 -1 -0 1 2 3 5 7 8 9 9 9 9 10 10 10 10 12 14 13 13 12 13 13 13 13 12 12 12 12 11 11 10 9 9 8 8 8 8 8 8 8 8 7 6 6 7 8 8
-8 -6 -7 -9 -11 -12 -12 -12 -12 -12 -12 -12 -12 -12 -12 -12 -12 -12 -12 -12 -11 -11 -11 -11 -10 -10 -10 -10 -9 -8 -7 -6 -6 -5 -4 -2 0 1 2 3 4 6 7 8 10 11 11 11 11 11 12 13 14 15 16 15 13 12 13 13 13 13 12 12 12 11 11 10 9 10 9 8 8 7 7 7 7 6 8 8 6 7 8 7 8
-8 -6 -7 -9 -11 -12 -12 -12 -12 -12 -12 -12 -12 -12 -12 -12 -12 -13 -12 -12 -11 -11 -11 -10 -9 -10 -10 -8 -8 -8 -7 -7 -4 7 11 5 5 7 7 8 8 9 9 9 11 12 12 12 13 14 14 14 15 16 17 17 17 15 13 13 12 12 12 11 11 11 11 10 9 9 8 8 7 7 6 7 7 8 8 7 6 6 4 3 7
-9 -8 -8 -9 -11 -12 -12 -13 -12 -12 -12 -12 -12 -12 -13 -12 -12 -13 -12 -12 -12 -11 -11 -11 -11 -10 -9 -9 -9 -8 -8 -7 7 12 14 15 9 7 8 8 9 9 9 9 9 10 11 12 13 13 14 15 15 16 17 17 18 18 17 16 15 13 11 11 10 10 9 9 9 9 8 7 7 7 7 8 8 8 8 7 6 5 3 -0 1
-9 -9 -9 -10 -11 -12 -12 -12 -12 -12 -12 -13 -13 -13 -13 -13 -13 -13 -14 -13 -13 -12 -12 -11 -11 -10 -10 -9 -9 -8 -8 2 11 13 14 15 14 8 9 9 9 10 10 11 11 12 12 12 12 12 12 13 14 14 15 16 16 16 17 18 18 18 17 12 10 9 9 8 8 8 7 6 6 8 8 9 9 9 9 8 6 5 4 3 4
-10 -10 -10 -11 -12 -12 -12 -12 -12 -12 -12 -13 -13 -13 -13 -14 -14 -15 -15 -14 -13 -13 -12 -11 -11 -10 -10 -10 -9 -8 -8 5 11 13 14 15 15 12 8 9 9 9 10 10 10 11 12 12 12 12 12 14 14 14 13 14 16 16 16 16 17 19 19 19 17 11 10 9 7 7 7 7 7 7 9 9 10 9 8 7 6 6 5 5 5
-10 -10 -11 -12 -12 -12 -12 -12 -13 -13 -13 -13 -13 -14 -15 -15 -15 -15 -14 -13 -13 -13 -13 -12 -11 -11 -10 -10 -9 -9 -9 4 11 13 14 15 15 14 8 9 9 9 9 10 10 10 10 12 12 12 12 12 13 13 13 13 13 14 14 15 15 15 17 18 18 17 14 10 9 7 8 9 8 9 11 12 10 8 7 6 5 4 5 5 6
-11 -11 -12 -12 -12 -12 -12 -13 -13 -13 -14 -14 -14 -15 -16 -16 -15 -15 -14 -14 -13 -13 -13 -12 -11 -11 -10 -10 -10 -9 -8 8 12 12 12 13 14 13 8 8 8 8 7 7 9 10 10 11 12 12 12 11 11 13 12 12 12 12 12 12 13 13 12 12 13 14 14 14 11 10 11 11 11 11 12 13 12 10 9 8 6 5 4 0 1
-12 -12 -12 -12 -12 -12 -13 -13 -13 -14 -14 -15 -16 -16 -16 -16 -16 -15 -14 -14 -13 -12 -12 -11 -11 -11 -10 -10 -10 -9 -8 9 12 11 8 10 12 6 7 7 6 6 7 8 8 9 10 11 12 12 12 11 12 17 16 12 11 10 10 10 10 10 10 13 15 16 13 12 12 13 13 13 15 12 12 12 12 12 10 5 3 -0 -1 -2 3
-12 -12 -12 -12 -12 -13 -13 -14 -14 -15 -15 -16 -17 -17 -16 -16 -16 -15 -15 -14 -13 -13 -12 -12 -11 -11 -10 -10 -10 -9 -8 2 11 9 7 7 9 5 6 6 7 7 7 7 8 9 9 11 12 12 12 12 13 17 18 17 11 10 9 8 8 8 8 9 15 17 18 18 18 18 18 18 19 20 20 19 14 12 8 4 4 2 1 -1 -1
-12 -12 -12 -12 -13 -13 -13 -14 -15 -15 -16 -17 -17 -16 -16 -16 -16 -15 -15 -14 -14 -13 -12 -11 -11 -10 -10 -10 -10 -9 -8 1 11 12 6 11 12 6 6 5 6 6 7 7 7 8 9 10 12 12 12 12 15 17 18 15 12 10 8 7 6 6 6 7 8 9 15 17 17 18 19 19 19 20 21 20 20 16 8 6 6 3 3 2 3
-12 -12 -12 -12 -13 -13 -14 -15 -16 -16 -17 -17 -17 -17 -17 -16 -16 -15 -14 -14 -14 -13 -12 -12 -12 -12 -11 -10 -7 -7 -7 -4 8 12 12 9 5 4 6 6 5 5 5 5 6 7 8 10 11 12 12 13 17 18 18 16 13 10 9 7 6 5 5 7 7 6 6 7 9 10 12 15 16 16 18 19 20 18 10 9 7 5 4 4 4
-12 -12 -12 -13 -13 -14 -15 -15 -16 -17 -17 -17 -17 -17 -17 -16 -16 -15 -15 -14 -14 -13 -13 -12 -13 -12 -11 -10 -9 -8 -7 -6 -2 12 14 14 14 6 7 7 6 5 5 5 5 5 6 7 9 14 15 14 16 17 18 18 14 12 10 8 6 5 7 7 7 7 7 6 6 7 8 9 10 12 13 16 18 18 11 10 8 7 6 6 5
-12 -12 -13 -13 -14 -15 -15 -16 -17 -17 -17 -18 -17 -17 -17 -16 -16 -16 -16 -15 -15 -14 -14 -14 -13 -12 -11 -9 -8 -8 -7 -6 -3 11 13 14 14 13 5 7 7 6 5 5 5 4 5 6 7 10 12 14 15 16 17 18 17 14 11 9 8 9 11 7 8 10 7 6 7 7 7 8 8 9 11 13 16 18 14 12 10 10 9 8 7
-12 -13 -13 -14 -15 -16 -17 -17 -17 -18 -18 -18 -18 -18 -17 -16 -16 -16 -16 -16 -16 -16 -15 -14 -14 -13 -11 -9 -8 -8 -6 -3 -3 7 12 13 14 15 7 7 9 7 6 6 5 4 4 5 6 9 11 13 15 15 16 17 17 14 13 17 17 17 12 9 8 8 8 7 7 7 7 7 7 8 9 11 13 15 16 13 12 12 12 12 10
-13 -14 -15 -16 -17 -17 -17 -18 -18 -18 -18 -18 -18 -19 -18 -18 -18 -17 -17 -17 -17 -17 -16 -15 -14 -12 -11 -10 -9 -7 -5 -3 1 2 7 13 14 15 12 12 14 10 7 6 6 7 6 6 7 10 13 13 13 14 15 15 15 13 18 17 18 18 15 12 9 8 8 8 8 7 7 7 7 7 8 9 11 13 15 16 15 15 14 14 15
-14 -15 -16 -17 -17 -18 -18 -19 -19 -19 -19 -19 -18 -19 -19 -19 -18 -17 -17 -17 -16 -16 -15 -14 -13 -12 -12 -11 -9 -7 -4 -3 1 3 3 12 14 15 15 14 14 8 9 8 8 8 8 8 9 13 14 14 14 14 14 14 12 15 15 16 16 15 13 13 11 9 8 8 8 8 7 8 8 7 7 8 10 11 12 14 16 16 15 15 15
-16 -17 -18 -18 -18 -19 -19 -19 -19 -20 -19 -19 -19 -19 -19 -19 -18 -18 -17 -17 -17 -16 -15 -13 -12 -12 -12 -11 -8 -6 -4 -3 -2 1 3 5 13 14 14 14 14 13 9 8 9 9 11 14 14 14 13 13 14 14 13 13 14 15 14 14 14 13 13 13 12 9 8 8 7 8 8 9 9 9 9 10 11 11 10 10 11 12 13 15 14
-18 -18 -18 -19 -19 -20 -20 -20 -20 -20 -20 -19 -19 -19 -19 -18 -18 -18 -17 -17 -16 -15 -13 -13 -13 -12 -11 -8 -7 -5 -4 -3 -1 -1 2 4 8 11 13 11 12 13 12 11 11 12 14 14 13 12 12 12 10 11 11 11 13 13 14 14 13 13 13 13 12 10 9 8 8 8 9 10 11 11 11 12 11 10 9 8 8 8 11 13 13
-18 -18 -19 -20 -20 -20 -21 -20 -19 -19 -20 -20 -19 -19 -19 -19 -18 -18 -17 -16 -15 -13 -13 -12 -12 -10 -10 -7 -7 -6 -4 -3 -3 -2 1 4 6 8 7 8 12 12 9 9 11 11 10 10 10 11 10 12 12 13 13 13 12 13 12 12 12 13 13 12 12 11 10 9 9 9 10 11 12 13 12 11 10 10 10 10 9 9 10 12 12
-18 -19 -20 -21 -20 -21 -21 -18 -19 -20 -20 -20 -20 -20 -20 -19 -19 -18 -16 -14 -13 -14 -13 -12 -11 -9 -8 -7 -7 -7 -5 -5 -4 -2 1 4 5 6 7 8 9 9 7 5 5 7 7 9 9 9 10 10 10 9 10 11 12 12 11 11 11 13 14 15 15 13 12 11 10 10 12 12 12 12 12 11 11 11 11 11 9 10 11 11 10
-19 -21 -21 -21 -21 -20 -20 -20 -20 -20 -21 -21 -21 -20 -20 -19 -17 -15 -12 -10 -11 -12 -12 -11 -9 -7 -6 -7 -6 -7 -8 -7 -5 2 3 5 5 6 6 7 9 8 10 10 7 5 6 7 8 8 7 8 7 7 7 8 10 12 11 11 11 11 12 13 13 13 13 12 11 11 11 12 12 12 12 11 11 10 11 11 10 10 11 11 10
-20 -21 -21 -21 -21 -21 -20 -20 -21 -21 -21 -21 -21 -21 -17 -13 -11 -10 -10 -9 -9 -3 -6 -12 -8 -7 -7 -7 -6 -7 -6 -5 2 9 10 10 9 8 9 11 11 8 10 12 9 5 6 6 7 8 8 8 7 7 7 7 7 8 10 12 11 11 12 12 13 13 14 13 12 11 11 12 11 12 12 11 12 11 11 12 10 11 11 11 10
-20 -21 -21 -21 -21 -20 -20 -21 -21 -21 -22 -22 -22 -21 -21 -19 -2 1 -9 -10 -8 -2 0 -2 -2 -5 -7 -9 -7 -3 -2 -1 6 8 9 9 11 10 11 10 12 9 7 2 -1 -1 -1 -2 -1 -0 3 3 3 4 5 4 4 5 6 7 9 11 11 12 12 13 13 13 13 12 12 12 12 12 11 12 12 11 11 13 12 12 12 12 11
-21 -21 -21 -21 -21 -20 -21 -21 -22 -22 -22 -22 -22 -21 -21 -21 -21 -18 -1 -7 -1 -1 -6 -2 -2 1 -4 -8 -10 -8 -5 -2 -1 5 7 4 8 8 9 11 10 10 4 1 -6 -6 -5 -5 -5 -4 -2 -2 -1 0 1 1 1 2 2 1 0 1 3 3 4 8 12 13 13 12 12 12 12 12 12 12 12 11 11 12 12 12 12 12 12
-21 -21 -21 -21 -21 -20 -21 -22 -22 -22 -23 -23 -22 -21 -21 -21 -23 -23 -20 -2 -0 -7 -2 2 1 -3 1 -5 -6 -3 -6 -2 0 4 5 1 6 4 5 9 10 7 -2 -8 -9 -9 -8 -8 -7 -7 -6 -5 -4 -3 -2 -1 -1 -1 -2 -2 -2 -1 -1 0 4 5 6 7 10 11 12 12 12 11 12 12 12 11 12 12 12 12 13 12 12
-23 -22 -22 -21 -21 -22 -22 -22 -23 -23 -22 -22 -22 -21 -20 -21 -22 -22 -22 -22 -22 -16 -12 -9 -7 -7 -6 -4 1 -2 1 -3 2 1 2 -1 5 5 1 -4 6 7 -4 -11 -11 -11 -10 -10 -9 -9 -8 -6 -6 -5 -5 -4 -3 -3 -3 -3 -2 -1 -0 1 1 1 1 2 3 3 5 8 9 10 9 9 10 11 11 11 12 11 12 12 11
-22 -20 -19 -19 -21 -22 -22 -22 -22 -22 -22 -22 -22 -21 -21 -21 -21 -21 -22 -22 -23 -24 -23 -22 -16 -14 -17 -14 -12 -7 -5 -3 -2 0 1 2 4 -2 -0 -15 -15 -14 -13 -12 -11 -12 -11 -11 -10 -10 -9 -9 -8 -7 -6 -6 -6 -5 -5 -4 -3 -3 -2 -2 -2 -3 -2 -1 -0 -1 -1 1 3 5 7 6 7 8 8 8 9 11 11 11 11
-21 -21 -22 -22 -22 -23 -22 -21 -22 -22 -23 -22 -21 -20 -20 -21 -22 -22 -21 -21 -23 -24 -23 -23 -22 -18 -16 -16 -15 -11 -7 -6 -3 1 5 6 -0 -6 -16 -17 -17 -16 -15 -15 -14 -12 -12 -11 -11 -11 -10 -9 -9 -9 -8 -7 -7 -6 -5 -6 -6 -5 -4 -4 -4 -4 -5 -4 -3 -0 -0 -2 -1 0 1 2 2 3 3 4 5 5 6 6 7
-21 -21 -22 -22 -22 -22 -21 -21 -22 -22 -19 -20 -21 -22 -22 -22 -22 -22 -22 -23 -23 -23 -24 -24 -23 -23 -20 -20 -17 -13 -10 -8 1 2 3 3 2 -11 -15 -16 -17 -17 -16 -16 -15 -14 -14 -13 -12 -12 -11 -11 -11 -10 -9 -8 -8 -8 -5 -7 -7 -6 -4 -4 -5 -7 -7 -8 -8 -8 -7 -8 -6 -4 -1 -1 -2 -2 -1 1 2 4 5 5 8
-22 -22 -22 -21 -21 -21 -21 -22 -22 -20 -21 -22 -22 -23 -23 -23 -23 -22 -23 -24 -23 -24 -25 -25 -21 -24 -24 -24 -18 -17 -17 -14 -12 -11 -10 -10 -15 -16 -16 -16 -16 -17 -17 -16 -16 -15 -15 -14 -13 -13 -12 -12 -12 -11 -10 -10 -9 -9 -9 -9 -7 -5 -1 -8 -8 -9 -9 -10 -10 -10 -8 -9 -10 -7 -5 -5 -4 -3 -2 0 -0 1 4 5 5
-22 -19 -18 -18 -18 -20 -20 -21 -21 -22 -23 -23 -23 -23 -23 -23 -24 -24 -24 -25 -25 -25 -24 -25 -25 -24 -24 -23 -22 -18 -17 -21 -21 -20 -18 -17 -16 -16 -16 -16 -16 -16 -16 -16 -16 -15 -15 -15 -13 -13 -13 -13 -12 -12 -11 -11 -10 -9 -9 -10 -9 -9 -10 -10 -10 -11 -11 -12 -13 -13 -12 -13 -13 -11 -10 -8 -7 -6 -5 -3 -3 -1 -0 0 1
-21 -21 -20 -19 -19 -20 -20 -20 -21 -23 -23 -24 -24 -24 -24 -24 -25 -25 -25 -26 -26 -25 -25 -25 -25 -25 -23 -22 -21 -20 -21 -22 -22 -20 -19 -18 -18 -17 -17 -17 -17 -17 -17 -17 -16 -16 -16 -15 -14 -14 -14 -14 -13 -13 -12 -11 -11 -9 -9 -9 -10 -10 -10 -11 -11 -12 -12 -12 -12 -13 -13 -13 -13 -13 -12 -11 -10 -10 -8 -8 -6 -5 -3 -2 -2
-21 -21 -19 -19 -19 -20 -21 -21 -22 -23 -23 -23 -24 -25 -26 -24 -24 -24 -25 -26 -25 -26 -25 -25 -25 -25 -22 -21 -18 -18 -22 -23 -22 -21 -20 -19 -20 -19 -18 -18 -18 -18 -17 -16 -16 -16 -16 -16 -15 -14 -14 -14 -14 -14 -13 -13 -12 -11 -10 -10 -10 -10 -11 -11 -11 -11 -11 -11 -12 -12 -13 -13 -12 -12 -10 -10 -1 -5 -7 -7 -7 -6 -4 -3 -3
-20 -20 -21 -20 -20 -21 -22 -22 -22 -22 -23 -23 -25 -25 -24 -24 -24 -25 -25 -25 -25 -25 -26 -26 -25 -24 -21 -20 -19 -18 -22 -23 -22 -21 -21 -20 -20 -20 -19 -19 -18 -18 -17 -16 -16 -16 -16 -16 -16 -15 -15 -14 -14 -14 -14 -14 -14 -13 -11 -12 -12 -12 -13 -13 -12 -12 -12 -12 -12 -11 -12 -10 -8 -6 -7 -0 -10 -9 -9 -9 -9 -7 -7 -6 -5
-19 -19 -20 -20 -20 -21 -22 -22 -23 -24 -24 -25 -25 -23 -23 -24 -25 -25 -26 -26 -26 -26 -26 -26 -26 -25 -24 -22 -22 -21 -24 -24 -22 -22 -22 -21 -21 -21 -21 -19 -19 -18 -18 -17 -15 -15 -15 -16 -16 -16 -15 -14 -14 -14 -14 -15 -14 -14 -13 -12 -13 -14 -15 -14 -14 -14 -13 -12 -12 -11 -11 -10 -9 -10 -9 -9 -10 -9 -9 -8 -8 -8 -7 -7 -6
-18 -19 -19 -20 -21 -21 -22 -23 -23 -23 -24 -23 -23 -23 -24 -25 -26 -27 -28 -28 -27 -26 -26 -26 -26 -26 -26 -24 -24 -24 -25 -25 -25 -24 -23 -21 -21 -20 -21 -20 -20 -19 -18 -18 -16 -16 -16 -16 -16 -16 -15 -15 -14 -14 -13 -13 -14 -15 -15 -15 -14 -14 -16 -16 -16 -15 -15 -14 -13 -12 -11 -11 -10 -10 -9 -9 -11 -9 -9 -9 -8 -9 -9 -10 -8
-18 -19 -20 -21 -22 -23 -23 -23 -23 -24 -23 -24 -26 -26 -25 -27 -28 -28 -27 -28 -27 -26 -27 -26 -26 -26 -26 -26 -26 -26 -26 -26 -24 -23 -23 -22 -22 -21 -21 -21 -20 -19 -19 -18 -17 -17 -17 -16 -16 -16 -16 -16 -15 -14 -14 -14 -14 -15 -15 -16 -17 -17 -17 -17 -16 -15 -15 -15 -14 -13 -12 -11 -11 -10 -11 -10 -9 -9 -8 -9 -9 -6 -8 -9 -9
-18 -19 -20 -21 -22 -22 -23 -24 -23 -24 -25 -26 -27 -27 -28 -29 -29 -29 -27 -27 -27 -27 -27 -27 -28 -27 -26 -27 -26 -26 -26 -26 -25 -24 -23 -23 -22 -22 -21 -21 -21 -20 -20 -19 -18 -18 -18 -18 -17 -17 -16 -16 -16 -16 -15 -14 -14 -15 -15 -15 -16 -16 -16 -16 -16 -16 -16 -16 -15 -15 -13 -12 -12 -11 -9 -11 -10 -9 -10 -9 -9 -8 -9 -8 -8
-18 -19 -20 -21 -22 -22 -23 -23 -24 -25 -26 -26 -26 -27 -27 -28 -28 -27 -26 -26 -26 -26 -28 -29 -29 -29 -29 -28 -27 -27 -26 -26 -25 -25 -25 -25 -24 -23 -22 -22 -21 -21 -21 -19 -19 -19 -18 -18 -18 -18 -17 -16 -16 -17 -16 -16 -15 -15 -15 -15 -15 -15 -15 -15 -16 -16 -16 -16 -16 -15 -14 -14 -13 -13 -12 -11 -11 -10 -10 -9 -9 -9 -8 -6 -7
-18 -19 -20 -21 -22 -23 -24 -24 -25 -24 -25 -26 -26 -26 -26 -27 -28 -28 -29 -29 -29 -29 -29 -30 -30 -30 -28 -28 -27 -27 -26 -26 -25 -25 -25 -25 -24 -23 -23 -23 -22 -22 -21 -20 -20 -20 -19 -19 -18 -18 -18 -18 -17 -17 -17 -17 -16 -15 -15 -15 -14 -15 -15 -15 -16 -16 -16 -16 -16 -16 -15 -15 -15 -14 -13 -13 -13 -12 -12 -12 -11 -9 -9 -8 -6
-19 -19 -20 -21 -22 -23 -24 -24 -24 -25 -26 -26 -26 -27 -27 -28 -28 -29 -29 -30 -30 -29 -31 -31 -31 -30 -30 -29 -28 -27 -27 -26 -27 -27 -26 -26 -25 -24 -24 -23 -23 -22 -22 -21 -21 -20 -20 -19 -18 -18 -19 -18 -18 -18 -18 -17 -17 -16 -16 -15 -14 -15 -15 -16 -16 -16 -15 -16 -17 -17 -16 -16 -16 -15 -14 -14 -13 -13 -12 -13 -12 -10 -10 -9 -8
-19 -20 -20 -21 -22 -23 -23 -24 -25 -25 -26 -26 -27 -28 -28 -28 -29 -29 -29 -30 -31 -30 -31 -31 -30 -31 -31 -30 -29 -29 -28 -28 -28 -27 -27 -26 -25 -25 -24 -25 -25 -24 -23 -22 -21 -21 -20 -20 -19 -19 -19 -19 -19 -19 -18 -18 -17 -16 -16 -15 -14 -15 -16 -16 -16 -16 -15 -16 -17 -17 -17 -17 -17 -16 -16 -15 -15 -14 -12 -12 -12 -11 -11 -11 -10
-20 -20 -21 -22 -22 -23 -23 -24 -25 -26 -27 -27 -27 -27 -27 -28 -28 -28 -29 -30 -31 -31 -30 -31 -32 -31 -31 -31 -29 -29 -29 -29 -28 -28 -27 -27 -26 -26 -26 -26 -26 -25 -24 -23 -22 -21 -21 -21 -20 -19 -19 -19 -19 -19 -19 -18 -17 -16 -16 -15 -14 -15 -16 -17 -17 -17 -16 -16 -17 -18 -18 -18 -18 -17 -17 -16 -15 -14 -13 -12 -12 -12 -12 -12 -11